Resia Pass, Italy

10:00 PM CEST on May 24, 2017 (GMT +0200)
Resia Pass

Weather History for LIVE - October, 2013

Change the Weather History Date:

Sunday, October 27, 2013

  Actual Average Record
Temperature  
Mean Temperature 48 °F -  
Max Temperature 51 °F 49 °F 62 °F (1999)
Min Temperature 46 °F 34 °F 21 °F (2003)
Degree Days  
Heating Degree Days 16    
Moisture  
Dew Point 47 °F    
Average Humidity 96    
Maximum Humidity 100    
Minimum Humidity 82    
Precipitation  
Precipitation 0.00 in - - ()
Sea Level Pressure  
Sea Level Pressure 30.13 in    
Wind  
Wind Speed 5 mph ()    
Max Wind Speed 10 mph    
Max Gust Speed 23 mph    
Visibility 2.8 miles    
Events Rain    
Averages and records for this station are not official NWS values.
T = Trace of Precipitation, MM = Missing Value Source: Averaged Metar Reports

Daily Weather History Graph

Daily Weather History Graph

Search for Another Location

Airport or City:

Trip Planner

Search our weather history database for the weather conditions in past years. The results will help you decide how hot, cold, wet, or windy it might be!

Date:

Astronomy

Oct. 27, 2013 Rise Set
Actual Time 6:52 AM CET 5:10 PM CET
Civil Twilight 6:21 AM CET 5:41 PM CET
Nautical Twilight 5:46 AM CET 6:16 PM CET
Astronomical Twilight 5:10 AM CET 6:51 PM CET
Moon No Moon Rise 1:33 PM CET (10/27)
Length of Visible Light 11h 19m
Length of Day
10h 17m
Last Quarter, 45% of the Moon is Illuminated
Oct 27
Last Quarter
Nov 3
New
Nov 10
First Quarter
Nov 17
Full
Nov 25
Last Quarter

Hourly Weather History & Observations

Time (CET) Temp. Windchill Dew Point Humidity Pressure Visibility Wind Dir Wind Speed Gust Speed Precip Events Conditions
12:55 AM 48.2 °F - 48.2 °F 100% 30.27 in - South 5.8 mph - N/A   Clear
1:55 AM 46.4 °F 44.3 °F 46.4 °F 100% 30.24 in - SSW 4.6 mph - N/A   Clear
2:55 AM 46.4 °F 45.2 °F 46.4 °F 100% 30.24 in - SSW 3.5 mph - N/A   Clear
3:55 AM 46.4 °F 44.3 °F 46.4 °F 100% 30.21 in - South 4.6 mph - N/A   Clear
4:55 AM 46.4 °F 43.5 °F 46.4 °F 100% 30.18 in - South 5.8 mph - N/A   Clear
6:55 AM 46.4 °F 42.4 °F 46.4 °F 100% 30.15 in 3.7 mi South 8.1 mph - N/A   Scattered Clouds
7:55 AM 46.4 °F 42.4 °F 46.4 °F 100% 30.15 in 2.5 mi South 8.1 mph - N/A   Mostly Cloudy
8:55 AM 46.4 °F 42.4 °F 44.6 °F 93% 30.15 in 0.9 mi South 8.1 mph 19.6 mph N/A   Overcast
9:55 AM 48.2 °F - 46.4 °F 93% 30.12 in 2.5 mi SSE 10.4 mph 21.9 mph N/A   Mostly Cloudy
10:55 AM 50.0 °F - 44.6 °F 82% 30.12 in 2.5 mi SSE 10.4 mph 21.9 mph N/A   Scattered Clouds
11:55 AM 51.8 °F - 46.4 °F 82% 30.09 in 2.5 mi SSE 10.4 mph 23.0 mph N/A   Mostly Cloudy
12:55 PM 51.8 °F - 46.4 °F 82% 30.06 in 2.5 mi South 9.2 mph 20.7 mph N/A   Mostly Cloudy
1:55 PM 50.0 °F - 48.2 °F 94% 30.09 in 1.9 mi SSE 6.9 mph 18.4 mph N/A Rain Light Rain
2:55 PM 50.0 °F - 48.2 °F 94% 30.06 in 2.5 mi SSE 9.2 mph 20.7 mph N/A   Overcast
3:55 PM 48.2 °F - 48.2 °F 100% 30.06 in 2.5 mi SSE 6.9 mph 18.4 mph N/A   Overcast
4:55 PM 48.2 °F - 48.2 °F 100% 30.04 in 1.9 mi South 9.2 mph 20.7 mph N/A   Overcast
5:55 PM 48.2 °F - 48.2 °F 100% 30.09 in 3.7 mi Calm Calm - N/A   Mostly Cloudy
6:55 PM 48.2 °F - 48.2 °F 100% 30.09 in 3.7 mi South 5.8 mph - N/A   Mostly Cloudy
7:55 PM 46.4 °F - 46.4 °F 100% 30.09 in 3.7 mi Calm Calm - N/A   Mostly Cloudy
8:55 PM 46.4 °F - 44.6 °F 93% 30.12 in 5.0 mi Calm Calm - N/A   Scattered Clouds
9:55 PM 46.4 °F - 46.4 °F 100% 30.09 in - Calm Calm - N/A   Clear
10:55 PM 46.4 °F - 44.6 °F 93% 30.09 in - Calm Calm - N/A   Clear